Etusivu
METAR-TAF:

METAR-TAF

Lentoasemat :

Morris Municipal Airport (James R. Washburn Field)

Morris, Illinois, Yhdysvallat

Leveyspiiri: 41-25-31N, Pituuspiiri: 088-25-07W, korkeus merenpinnasta: 178 m

Tämänhetkinen sää

Tämä raportti tehtiin 32 minuuttia sitten, kello 04.35 UTC
Tuuli 5 kn idästä
Lämpötila 4°C
Kosteus 93%
Ilmanpaine 1020 hPa
Näkyvyys: 16.1 km
selkeää

METAR: KC09 020435Z AUTO 10005KT 10SM CLR 04/03 A3012 RMK AO2 T00430025

Aika: 00:07 (05:07 UTC)


TAF: puuttuu

Säähavainnot ja -ennusteet yli 4000 lentoasemalta (METAR- ja TAF-raportit).

Käytössä olevat sääasemat on merkitty karttaan keltaisilla ja punaisilla pisteillä.

Aseta hiiri pisteen päälle nähdäksesi sääaseman nimen.

Klikkaa sitten nähdäksesi säähavainnot ja -ennusteet.

Kartan vaihtaminen: klikkaa mustalla rastilla varustettuja vihreitä pisteitä, niin voit zoomata sisään; viivalla varustettua vihreää pistettä, niin voit zoomata ulos tai vihreitä nuolia, niin pääset viereisille kartoille.


METAR-TAF: